User: anonymous   Login
Location: Caltech
(34.1382°N, 118.1253°W)
Time: 04:58:19
(UTC-07:00)
Language:

Cosmos 1833 - Orbit

View from above orbital plane
View from above orbital plane
View from above satellite
View from above satellite

Ground track
Ground track

The orbit data is extracted from the following two-line orbital elements,

1 17589U 87027A   16271.82578530  .00000267  00000-0  16870-3 0  9999
2 17589  70.9228  16.0573 0024710 349.4814  10.5786 14.12885890523248
Epoch (UTC): 27 September 2016 19:49:07
Eccentricity: 0.0024710
inclination: 70.9228°
perigee height: 831 km
apogee height: 867 km
right ascension of ascending node: 16.0573°
argument of perigee: 349.4814°
revolutions per day: 14.12885890
mean anomaly at epoch: 10.5786°
orbit number at epoch: 52324

The dashed part of the orbit path shows where the satellite is in the earth's shadow,  

DLR